Location: Banios
(43.0451°N, 0.2335°E)
Time: 12:52:15
(UTC+00:00)

A-11 Canister half - Pass Details

Date: 09 May 2021
Orbit: 1513 x 1686 km, 47.2° (Epoch: 14 June)

Event Time Altitude Azimuth Distance (km) Brightness Sun altitude
Rises 21:07:10 0° 294° (WNW) 4,674 12.8 -18.1°
Reaches altitude 10° 21:10:10 10° 293° (WNW) 3,702 12.0 -18.5°
Maximum altitude 21:19:29 75° 210° (SSW) 1,612 9.0 -19.6°
Enters shadow 21:25:08 29° 131° (SE) 2,611 9.6 -20.2°
Drops below altitude 10° 21:29:07 10° 127° (SE) 3,816 - -20.7°
Sets 21:32:16 0° 126° (SE) 4,823 - -21.0°
